Regional Weather Roundup
Issued by NWS

Home | Current Version | Previous Version | Graphics & Text | Print | Product List | Glossary On
Versions: 1 2 3 4 5 6 7 8 9 10 11 12 13 14 15 16 17 18 19 20 21 22 23 24 25 26 27 28 29 30 31 32 33 34 35 36 37 38 39 40 41 42 43 44 45 46 47 48 49 50
000
ASUS45 KABQ 252010
RWRNM
WEATHER ROUNDUP FOR NEW MEXICO
NATIONAL WEATHER SERVICE ALBUQUERQUE NM
200 PM MDT FRI JUL 25 2014

NOTE: "FAIR" MEANS FEW OR NO CLOUDS BELOW 12,000 FEET AGL WITH NO
       SIGNIFICANT WEATHER OR OBSTRUCTIONS TO VISION.

      THIS PRODUCT IS RELEASED AS TWO VERSIONS.  ONE VERSION NEAR
      THE TOP OF THE HOUR CONTAINING PRELIMINARY DATA FROM ALBUQUERQUE
      AND OTHER STATIONS.  A FINAL VERSION WITH ADDITIONAL DATA IS
      ISSUED ABOUT 10 MINUTES AFTER THE HOUR.

NMZ501-503-504-510>518-252100-
NORTHWEST PLATEAU/NORTHCENTRAL MOUNTAINS

CITY           SKY/WX    TMP DP  RH WIND       PRES   REMARKS
FARMINGTON     SUNNY     92  43  18 NW15G26   30.16F
LOS ALAMOS     MOSUNNY   83  44  25 S6        30.32F
SANTA FE       SUNNY     88  46  23 MISG      30.23F
TAOS             N/A     86  43  22 CALM      30.29F
ANGEL FIRE     FAIR      79  44  28 W16       30.40F

$$
NMZ402-403-502-505>509-252100-
WESTCENTRAL MOUNTAINS/SOUTHWEST MOUNTAINS

CITY           SKY/WX    TMP DP  RH WIND       PRES   REMARKS
GALLUP         CLOUDY    88  39  17 W10       30.26F
GRANTS         PTSUNNY   86  37  17 CALM      30.28F
SILVER CITY    SUNNY     90  39  17 CALM      30.22F

$$
NMZ407-409-411-412-252100-
SOUTHERN DESERTS

CITY           SKY/WX    TMP DP  RH WIND       PRES   REMARKS
LORDSBURG      FAIR      95  43  16 NE3       30.10F
DEMING         SUNNY     96  45  17 E8        30.11F
LAS CRUCES     MOSUNNY   96  43  16 NE7       30.14S
HOLLOMAN AFB   MOSUNNY   97  44  16 W9        30.08F
ALAMOGORDO     SUNNY     95  45  17 CALM      30.10F
T OR C         SUNNY     96  42  15 VRB5      30.14F

$$
NMZ519>523-252100-
CENTRAL VALLEYS/CENTRAL HIGHLANDS

CITY           SKY/WX    TMP DP  RH WIND       PRES   REMARKS
ALBUQUERQUE    MOSUNNY   92  44  19 VRB3      30.17F
DOUBLE EAGLE   MOSUNNY   91  41  17 NW9G18    30.22F
MORIARTY ARPT  FAIR      91  41  17 E3        30.24F
CLINES CORNERS PTSUNNY   86  43  22 NW13G24   30.28F
BELEN          FAIR      93  43  17 N5        30.16F
SOCORRO        FAIR      97  39  13 SE12      30.13F

$$
NMZ524>526-539-540-252100-
SOUTHCENTRAL MOUNTAINS

CITY           SKY/WX    TMP DP  RH WIND       PRES   REMARKS
RUIDOSO        MOSUNNY   84  41  21 MISG      30.33S

$$
NMZ527>531-252100-
NORTHEAST HIGHLANDS/NORTHEAST PLAINS

CITY           SKY/WX    TMP DP  RH WIND       PRES   REMARKS
LAS VEGAS      CLOUDY    89  43  20 VRB7      30.24F
RATON          NOT AVBL
CLAYTON        SUNNY    100  39  12 SW12G22   30.05F HX  95

$$
NMZ532>537-252100-
EASTCENTRAL PLAINS

CITY           SKY/WX    TMP DP  RH WIND       PRES   REMARKS
TUCUMCARI      SUNNY    102  40  12 S9G23     30.00F HX  97
CANNON AFB     SUNNY     96  53  22 SW10      30.08F
CLOVIS AIRPORT NOT AVBL

$$
NMZ028-029-538-252100-
SOUTHEAST PLAINS

CITY           SKY/WX    TMP DP  RH WIND       PRES   REMARKS
ROSWELL        SUNNY    100  48  17 SE13G21   30.03F HX  96
ARTESIA        SUNNY     99  48  18 S15       30.04F HX  95
CARLSBAD       MOSUNNY   99  45  15 MISG      30.02F HX  95
HOBBS          MOSUNNY   95  50  21 SE5       30.08F


$$


USA.gov is the U.S. government's official web portal to all federal, state and local government web resources and services.